Date String (YYYY-MM-DD hh:mm:ss) UTC,Instrument flags,Ambient pressure (hPa),Sample flow (lpm),Bypass flow (lpm),Sample temperature (°C),Ambient temperature (°C),ASC tube jacket temperature (°C),LED temperature (°C),Box temperature (°C),Sample RH (%),Span deviation,Mass concentration (μg/m³),Mass concentration (μg/m³),Mass concentration (μg/m³)
DateTimeUTC,F1_M11,P_M11,Q1_M11,Q2_M11,T1_M11,T2_M11,T3_M11,T4_M11,T5_M11,U1_M11,ZSPAN_M11,X2_M11,X0_M11,X1_M11
2022-08-07 04:00:00,,0828.4,5.01,0.00,32.3,28.7,00.0,40.3,32.6,35.0,0000.0,0005.59,0011.76,0004.77
2022-08-07 04:01:00,,0828.5,4.99,0.00,32.5,28.8,00.0,40.3,32.7,34.7,0000.0,0005.58,0011.85,0004.76
2022-08-07 04:02:00,,0828.5,5.01,0.00,32.5,28.8,00.0,40.3,32.7,34.1,0000.0,0005.58,0011.89,0004.77
2022-08-07 04:03:00,,0828.5,5.00,0.00,32.6,28.9,00.0,40.3,32.7,33.9,0000.0,0005.57,0011.67,0004.77
2022-08-07 04:04:00,,0828.5,5.00,0.00,32.5,28.9,00.0,40.4,32.7,34.5,0000.0,0005.57,0011.48,0004.77
2022-08-07 04:05:00,,0828.5,5.01,0.00,32.5,28.5,00.0,40.3,32.5,34.9,0000.0,0005.61,0010.96,0004.78
2022-08-07 04:06:00,,0828.4,5.00,0.00,32.4,27.7,00.0,40.3,32.3,35.0,0000.0,0005.64,0010.25,0004.81
2022-08-07 04:07:00,,0828.4,5.00,0.00,32.4,27.4,00.0,40.3,32.3,35.0,0000.0,0005.69,0010.17,0004.84
2022-08-07 04:08:00,,0828.3,5.01,0.00,32.4,27.4,00.0,40.3,32.3,35.1,0000.0,0005.72,0010.25,0004.85
2022-08-07 04:09:00,,0828.3,4.99,0.00,32.5,27.5,00.0,40.3,32.4,35.0,0000.0,0005.73,0010.31,0004.87
2022-08-07 04:10:00,,0828.3,5.01,0.00,32.6,27.6,00.0,40.2,32.5,34.6,0000.0,0005.75,0010.79,0004.89
2022-08-07 04:11:00,,0828.3,4.99,0.00,32.7,27.8,00.0,40.3,32.4,34.6,0000.0,0005.78,0011.16,0004.90
2022-08-07 04:12:00,,0828.3,5.01,0.00,32.6,27.9,00.0,40.3,32.4,34.7,0000.0,0005.82,0011.18,0004.91
2022-08-07 04:13:00,,0828.3,4.98,0.00,32.6,28.1,00.0,40.3,32.4,34.7,0000.0,0005.83,0011.18,0004.92
2022-08-07 04:14:00,,0828.3,5.02,0.00,32.5,28.2,00.0,40.3,32.4,34.8,0000.0,0005.85,0011.41,0004.94
2022-08-07 04:15:00,,0828.2,5.00,0.00,32.5,28.3,00.0,40.3,32.4,34.7,0000.0,0005.89,0011.58,0004.94
2022-08-07 04:16:00,,0828.2,4.99,0.00,32.4,28.5,00.0,40.4,32.5,34.8,0000.0,0005.86,0011.48,0004.95
2022-08-07 04:17:00,,0828.3,5.01,0.00,32.3,28.6,00.0,40.4,32.5,34.9,0000.0,0005.85,0011.48,0004.94
2022-08-07 04:18:00,,0828.1,5.00,0.00,32.3,28.6,00.0,40.4,32.5,34.5,0000.0,0005.84,0011.57,0004.92
2022-08-07 04:19:00,,0828.2,4.99,0.00,32.2,28.7,00.0,40.4,32.5,34.1,0000.0,0005.83,0011.64,0004.90
2022-08-07 04:20:00,,0828.2,5.00,0.00,32.2,28.8,00.0,40.4,32.5,34.2,0000.0,0005.80,0011.55,0004.88
2022-08-07 04:21:00,,0828.1,5.02,0.00,32.1,28.9,00.0,40.4,32.5,34.2,0000.0,0005.79,0010.95,0004.87
2022-08-07 04:22:00,,0828.1,5.00,0.00,32.1,28.9,00.0,40.4,32.5,34.2,0000.0,0005.78,0010.23,0004.85
2022-08-07 04:23:00,,0828.1,5.00,0.00,32.0,29.0,00.0,40.3,32.6,34.5,0000.0,0005.76,0010.12,0004.85
2022-08-07 04:24:00,,0828.1,5.00,0.00,32.0,28.9,00.0,40.3,32.5,34.5,0000.0,0005.74,0010.09,0004.83
2022-08-07 04:25:00,,0828.1,4.99,0.00,31.9,28.4,00.0,40.3,32.4,34.6,0000.0,0005.73,0010.08,0004.83
2022-08-07 04:26:00,,0828.1,5.00,0.00,31.8,28.0,00.0,40.2,32.3,34.8,0000.0,0005.71,0010.89,0004.83
2022-08-07 04:27:00,,0828.1,5.01,0.00,31.7,27.9,00.0,40.2,32.2,35.0,0001.3,0005.72,0011.17,0004.83
2022-08-07 04:28:00,,0828.1,4.99,0.00,31.7,27.9,00.0,40.1,32.3,35.2,0001.9,0005.71,0011.23,0004.81
2022-08-07 04:29:00,,0828.1,5.02,0.00,31.9,28.0,00.0,40.1,32.5,35.0,0000.3,0005.68,0011.41,0004.80
2022-08-07 04:30:00,,0828.1,4.99,0.00,32.2,28.1,00.0,40.0,32.6,34.5,0000.0,0005.67,0011.77,0004.80
2022-08-07 04:31:00,,0828.1,5.00,0.00,32.3,28.3,00.0,40.0,32.5,34.1,0000.0,0005.67,0011.90,0004.78
2022-08-07 04:32:00,,0828.1,4.99,0.00,32.3,28.4,00.0,40.1,32.5,34.1,0000.0,0005.65,0011.80,0004.78
2022-08-07 04:33:00,,0828.1,5.00,0.00,32.3,28.5,00.0,40.1,32.5,34.1,0000.0,0005.61,0011.73,0004.76
2022-08-07 04:34:00,,0828.1,5.01,0.00,32.2,28.6,00.0,40.1,32.5,34.2,0000.0,0005.54,0011.64,0004.75
2022-08-07 04:35:00,,0828.1,5.00,0.00,32.2,28.7,00.0,40.2,32.5,34.4,0000.0,0005.52,0011.45,0004.74
2022-08-07 04:36:00,,0828.1,5.00,0.00,32.2,28.8,00.0,40.2,32.5,34.3,0000.0,0005.55,0011.41,0004.73
2022-08-07 04:37:00,,0828.1,5.02,0.00,32.1,28.9,00.0,40.2,32.5,34.3,0000.0,0005.54,0010.48,0004.71
2022-08-07 04:38:00,,0828.1,5.00,0.00,32.1,28.9,00.0,40.2,32.5,34.6,0000.0,0005.53,0010.38,0004.70
2022-08-07 04:39:00,,0828.0,5.00,0.00,32.0,28.6,00.0,40.2,32.4,34.5,0000.0,0005.53,0010.41,0004.71
2022-08-07 04:40:00,,0828.0,5.00,0.00,31.9,28.1,00.0,40.2,32.3,34.7,0000.0,0005.53,0010.11,0004.72
2022-08-07 04:41:00,,0828.0,5.01,0.00,31.8,27.8,00.0,40.1,32.2,34.6,0000.0,0005.51,0009.63,0004.72
2022-08-07 04:42:00,,0828.0,5.01,0.00,31.7,27.8,00.0,40.1,32.1,34.6,0000.0,0005.48,0009.27,0004.73
2022-08-07 04:43:00,,0828.0,4.99,0.00,31.6,27.9,00.0,40.0,32.2,34.6,0000.0,0005.46,0009.13,0004.73
2022-08-07 04:44:00,,0828.0,5.01,0.00,31.5,28.0,00.0,40.0,32.2,34.3,0000.0,0005.43,0008.98,0004.74
2022-08-07 04:45:00,,0827.9,5.00,0.00,31.4,28.2,00.0,40.0,32.2,34.3,0000.0,0005.42,0008.91,0004.73
2022-08-07 04:46:00,,0827.8,4.99,0.00,31.4,28.3,00.0,39.9,32.2,34.0,0000.0,0005.37,0008.85,0004.71
2022-08-07 04:47:00,,0827.8,5.00,0.00,31.3,28.4,00.0,39.9,32.2,33.7,0000.0,0005.29,0008.81,0004.69
2022-08-07 04:48:00,,0827.9,5.00,0.00,31.3,28.5,00.0,39.9,32.2,33.5,0000.0,0005.26,0009.16,0004.67
2022-08-07 04:49:00,,0827.9,4.99,0.00,31.2,28.6,00.0,39.9,32.3,33.2,0000.0,0005.21,0009.00,0004.64
2022-08-07 04:50:00,,0827.8,5.00,0.00,31.2,28.7,00.0,39.8,32.3,33.3,0000.0,0005.18,0008.97,0004.61
2022-08-07 04:51:00,,0827.9,4.99,0.00,31.2,28.7,00.0,39.8,32.3,32.8,0000.0,0005.12,0008.88,0004.56
2022-08-07 04:52:00,,0827.8,5.00,0.00,31.1,28.8,00.0,39.8,32.3,32.9,0000.0,0005.08,0008.86,0004.51
2022-08-07 04:53:00,,0827.8,5.01,0.00,31.1,28.9,00.0,39.8,32.3,33.0,0000.0,0005.03,0008.78,0004.47
2022-08-07 04:54:00,,0827.7,5.01,0.00,31.1,28.9,00.0,39.7,32.3,32.9,0000.0,0004.99,0008.76,0004.43
2022-08-07 04:55:00,,0827.7,4.99,0.00,31.1,28.5,00.0,39.7,32.2,32.9,0000.0,0005.00,0008.85,0004.41
2022-08-07 04:56:00,,0827.7,5.01,0.00,31.0,27.7,00.0,39.6,32.0,33.1,0000.0,0005.01,0008.95,0004.39
2022-08-07 04:57:00,,0827.7,5.01,0.00,30.9,27.3,00.0,39.6,32.0,33.4,0000.0,0004.99,0009.01,0004.38
2022-08-07 04:58:00,,0827.7,4.99,0.00,30.8,27.2,00.0,39.5,31.8,33.5,0000.0,0004.97,0008.91,0004.36
2022-08-07 04:59:00,,0827.7,5.00,0.00,30.7,27.3,00.0,39.4,31.8,32.8,0000.0,0004.92,0008.49,0004.33
